Teesside, United Kingdom

10:40 PM BST on July 25, 2017 (GMT +0100)
Teesside

Weather History for EGNV - December, 2012

Change the Weather History Date:

Tuesday, December 11, 2012

  Actual Average Record
Temperature  
Mean Temperature 34 °F -  
Max Temperature 39 °F 43 °F 55 °F (2000)
Min Temperature 28 °F 33 °F 26 °F (2001)
Degree Days  
Heating Degree Days 32    
Moisture  
Dew Point 31 °F    
Average Humidity 90    
Maximum Humidity 93    
Minimum Humidity 81    
Precipitation  
Precipitation 0.00 in - - ()
Sea Level Pressure  
Sea Level Pressure 30.39 in    
Wind  
Wind Speed 4 mph ()    
Max Wind Speed 7 mph    
Max Gust Speed -    
Visibility 6.1 miles    
Events      
Averages and records for this station are not official NWS values.
T = Trace of Precipitation, MM = Missing Value Source: Averaged Metar Reports

Daily Weather History Graph

Daily Weather History Graph

Search for Another Location

Airport or City:

Trip Planner

Search our weather history database for the weather conditions in past years. The results will help you decide how hot, cold, wet, or windy it might be!

Date:

Astronomy

Dec. 11, 2012 Rise Set
Actual Time 8:17 AM GMT 3:40 PM GMT
Civil Twilight 7:33 AM GMT 4:24 PM GMT
Nautical Twilight 6:46 AM GMT 5:11 PM GMT
Astronomical Twilight 6:03 AM GMT 5:54 PM GMT
Moon 5:43 AM GMT (12/11) 2:15 PM GMT (12/11)
Length of Visible Light 8h 50m
Length of Day
7h 22m
Waning Crescent, 5% of the Moon is Illuminated
Dec 11
Waning Crescent
Dec 13
New
Dec 20
First Quarter
Dec 28
Full
Jan 5
Last Quarter

Hourly Weather History & Observations

Time (GMT) Temp. Windchill Dew Point Humidity Pressure Visibility Wind Dir Wind Speed Gust Speed Precip Events Conditions
5:50 AM 35.6 °F 32.8 °F 32.0 °F 87% 30.42 in - NW 3.5 mph - N/A   Clear
6:20 AM 33.8 °F 30.8 °F 32.0 °F 93% 30.42 in 6.2 mi Variable 3.5 mph - N/A   Partly Cloudy
6:50 AM 32.0 °F 28.7 °F 30.2 °F 93% 30.42 in 6.2 mi Variable 3.5 mph - N/A   Scattered Clouds
7:20 AM 32.0 °F 28.7 °F 30.2 °F 93% 30.42 in 5.6 mi Variable 3.5 mph - N/A   Scattered Clouds
7:50 AM 33.8 °F 28.6 °F 32.0 °F 93% 30.42 in 6.2 mi WNW 5.8 mph - N/A   Scattered Clouds
8:20 AM 33.8 °F 30.8 °F 30.2 °F 87% 30.42 in 6.2 mi WNW 3.5 mph - N/A   Scattered Clouds
8:50 AM 33.8 °F 30.8 °F 30.2 °F 87% 30.42 in 6.2 mi Variable 3.5 mph - N/A   Partly Cloudy
9:20 AM 32.0 °F - 30.2 °F 93% 30.45 in 5.6 mi Variable 1.2 mph - N/A   Partly Cloudy
9:50 AM 32.0 °F 26.4 °F 30.2 °F 93% 30.45 in 5.6 mi SSW 5.8 mph - N/A   Partly Cloudy
10:20 AM 33.8 °F 30.8 °F 32.0 °F 93% 30.45 in 5.6 mi Variable 3.5 mph - N/A   Scattered Clouds
10:50 AM 33.8 °F 30.8 °F 32.0 °F 93% 30.45 in 6.2 mi SSE 3.5 mph - N/A   Scattered Clouds
11:20 AM 33.8 °F 29.6 °F 32.0 °F 93% 30.45 in 6.2 mi South 4.6 mph - N/A   Scattered Clouds
11:50 AM 35.6 °F 31.7 °F 33.8 °F 93% 30.42 in 6.2 mi SW 4.6 mph - N/A   Scattered Clouds
12:20 PM 35.6 °F 32.8 °F 33.8 °F 93% 30.42 in 6.2 mi South 3.5 mph - N/A   Scattered Clouds
12:50 PM 37.4 °F 33.8 °F 33.8 °F 87% 30.42 in 6.2 mi South 4.6 mph - N/A   Partly Cloudy
1:20 PM 37.4 °F 32.8 °F 33.8 °F 87% 30.39 in 6.2 mi SW 5.8 mph - N/A   Partly Cloudy
1:50 PM 37.4 °F 33.8 °F 33.8 °F 87% 30.39 in 6.2 mi SSW 4.6 mph - N/A   Scattered Clouds
2:20 PM 39.2 °F 37.0 °F 33.8 °F 81% 30.39 in 6.2 mi South 3.5 mph - N/A   Partly Cloudy
2:50 PM 37.4 °F 33.8 °F 33.8 °F 87% 30.39 in 6.2 mi SSW 4.6 mph - N/A   Partly Cloudy
3:20 PM 35.6 °F 32.8 °F 32.0 °F 87% 30.39 in 6.2 mi South 3.5 mph - N/A   Partly Cloudy
3:50 PM 33.8 °F - 32.0 °F 93% 30.36 in - South 2.3 mph - N/A   Clear
4:20 PM 33.8 °F - 32.0 °F 93% 30.36 in - SSE 1.2 mph - N/A   Clear
4:50 PM 33.8 °F 30.8 °F 32.0 °F 93% 30.36 in - SSW 3.5 mph - N/A   Clear
5:20 PM 33.8 °F 29.6 °F 32.0 °F 93% 30.36 in - SSW 4.6 mph - N/A   Clear
5:50 PM 33.8 °F 29.6 °F 32.0 °F 93% 30.36 in - SW 4.6 mph - N/A   Clear
6:20 PM 33.8 °F 28.6 °F 32.0 °F 93% 30.36 in - West 5.8 mph - N/A   Clear
6:50 PM 33.8 °F 28.6 °F 30.2 °F 87% 30.33 in - WSW 5.8 mph - N/A   Clear
7:20 PM 32.0 °F 25.6 °F 30.2 °F 93% 30.33 in - WSW 6.9 mph - N/A   Clear
7:50 PM 32.0 °F 27.5 °F 28.4 °F 87% 30.33 in - West 4.6 mph - N/A   Clear
8:20 PM 30.2 °F 25.4 °F 28.4 °F 93% 30.30 in - West 4.6 mph - N/A   Clear
8:50 PM 30.2 °F 26.7 °F 26.6 °F 86% 30.30 in - WSW 3.5 mph - N/A   Clear
9:20 PM 28.4 °F 24.6 °F 26.6 °F 93% 30.30 in - WSW 3.5 mph - N/A   Clear
9:50 PM 30.2 °F 25.4 °F 26.6 °F 86% 30.30 in - WSW 4.6 mph - N/A   Clear